| time (UTC) | temp F | wind direction | speed MPH | gust MPH | rain 1hr in | rain 24hr in | rain mn in | humidity % | barometer mb |
| 20260906192337 | 72 | 58 | 4.0 | 0.0 | 0.00 | 0.00 | 0.00 | 48 | 1015.1 |
| 20260906191327 | 72 | 269 | 3.0 | 0.0 | 0.00 | 0.00 | 0.00 | 48 | 1015.3 |
| 20260906190330 | 72 | 135 | 2.0 | 0.0 | 0.00 | 0.00 | 0.00 | 49 | 1015.5 |
| 20260906185333 | 71 | 131 | 3.0 | 0.0 | 0.00 | 0.00 | 0.00 | 49 | 1016.1 |
| 20260906184337 | 70 | 124 | 3.0 | 0.0 | 0.00 | 0.00 | 0.00 | 50 | 1016.5 |
| 20260906183328 | 70 | 125 | 3.0 | 0.0 | 0.00 | 0.00 | 0.00 | 51 | 1016.7 |
| 20260906182333 | 70 | 191 | 3.0 | 0.0 | 0.00 | 0.00 | 0.00 | 52 | 1016.8 |
| 20260906181342 | 69 | 111 | 3.0 | 0.0 | 0.00 | 0.00 | 0.00 | 52 | 1017.1 |
| 20260906180328 | 68 | 63 | 5.0 | 0.0 | 0.00 | 0.00 | 0.00 | 53 | 1016.5 |
| 20260906175330 | 68 | 121 | 5.0 | 0.0 | 0.00 | 0.00 | 0.00 | 57 | 1017.4 |
| 20260906174338 | 68 | 82 | 4.0 | 0.0 | 0.00 | 0.00 | 0.00 | 57 | 1017.8 |
| 20260906173341 | 67 | 145 | 4.0 | 0.0 | 0.00 | 0.00 | 0.00 | 58 | 1018.0 |
| 20260906172345 | 67 | 127 | 4.0 | 0.0 | 0.00 | 0.00 | 0.00 | 59 | 1018.2 |
| 20260906171328 | 66 | 84 | 4.0 | 0.0 | 0.00 | 0.00 | 0.00 | 60 | 1017.9 |
| 20260906170338 | 66 | 119 | 3.0 | 0.0 | 0.00 | 0.00 | 0.00 | 61 | 1018.0 |
| 20260906165342 | 65 | 112 | 4.0 | 0.0 | 0.00 | 0.00 | 0.00 | 62 | 1018.5 |
| 20260906164325 | 65 | 86 | 5.0 | 0.0 | 0.00 | 0.00 | 0.00 | 62 | 1018.7 |
| 20260906163327 | 64 | 128 | 4.0 | 0.0 | 0.00 | 0.00 | 0.00 | 63 | 1018.8 |
| 20260906162353 | 63 | 136 | 5.0 | 0.0 | 0.00 | 0.00 | 0.00 | 64 | 1019.2 |
| 20260906161335 | 63 | 129 | 5.0 | 0.0 | 0.00 | 0.00 | 0.00 | 66 | 1019.3 |
| 20260906160337 | 62 | 89 | 5.0 | 0.0 | 0.00 | 0.00 | 0.00 | 66 | 1019.4 |
| 20260906155340 | 62 | 97 | 4.0 | 0.0 | 0.00 | 0.00 | 0.00 | 67 | 1019.6 |
| 20260906154328 | 62 | 92 | 5.0 | 0.0 | 0.00 | 0.00 | 0.00 | 67 | 1019.6 |
| 20260906153330 | 61 | 117 | 5.0 | 0.0 | 0.00 | 0.00 | 0.00 | 69 | 1019.8 |
| 20260906152336 | 60 | 98 | 6.0 | 0.0 | 0.00 | 0.00 | 0.00 | 69 | 1019.3 |
| 20260906151339 | 60 | 87 | 6.0 | 0.0 | 0.00 | 0.00 | 0.00 | 71 | 1019.4 |
| 20260906150327 | 59 | 90 | 4.0 | 0.0 | 0.00 | 0.00 | 0.00 | 73 | 1019.5 |
| 20260906145334 | 58 | 90 | 4.0 | 0.0 | 0.00 | 0.00 | 0.00 | 74 | 1019.6 |
| 20260906144341 | 58 | 92 | 4.0 | 0.0 | 0.00 | 0.00 | 0.00 | 74 | 1019.7 |
| 20260906143404 | 57 | 83 | 4.0 | 0.0 | 0.00 | 0.00 | 0.00 | 74 | 1020.0 |
| 20260906142330 | 57 | 140 | 3.0 | 0.0 | 0.00 | 0.00 | 0.00 | 75 | 1020.1 |
| 20260906141332 | 56 | 151 | 3.0 | 0.0 | 0.00 | 0.00 | 0.00 | 77 | 1020.1 |
| 20260906140336 | 55 | 149 | 4.0 | 0.0 | 0.00 | 0.00 | 0.00 | 77 | 1020.5 |
| 20260906135339 | 54 | 186 | 3.0 | 0.0 | 0.00 | 0.00 | 0.00 | 78 | 1019.8 |
| 20260906134327 | 54 | 151 | 4.0 | 0.0 | 0.00 | 0.00 | 0.00 | 78 | 1019.6 |
| 20260906133350 | 53 | 181 | 4.0 | 0.0 | 0.00 | 0.00 | 0.00 | 78 | 1020.0 |
| 20260906132331 | 52 | 116 | 5.0 | 0.0 | 0.00 | 0.00 | 0.00 | 77 | 1019.8 |
| 20260906131335 | 52 | 124 | 5.0 | 0.0 | 0.00 | 0.00 | 0.00 | 76 | 1019.6 |
| 20260906130358 | 54 | 79 | 6.0 | 0.0 | 0.00 | 0.00 | 0.00 | 75 | 1019.3 |
| 20260906125323 | 56 | 108 | 7.0 | 0.0 | 0.00 | 0.00 | 0.00 | 74 | 1019.4 |
| 20260906124329 | 57 | 37 | 10.0 | 0.0 | 0.00 | 0.00 | 0.00 | 76 | 1019.9 |
| 20260906123333 | 57 | 35 | 7.0 | 0.0 | 0.00 | 0.00 | 0.00 | 77 | 1019.8 |
| 20260906122336 | 56 | 330 | 6.0 | 0.0 | 0.00 | 0.00 | 0.00 | 78 | 1019.1 |
| 20260906121344 | 55 | 289 | 7.0 | 0.0 | 0.00 | 0.00 | 0.00 | 78 | 1018.9 |
| 20260906120327 | 56 | 298 | 13.0 | 0.0 | 0.00 | 0.00 | 0.00 | 77 | 1018.7 |
| 20260906115341 | 56 | 326 | 18.0 | 0.0 | 0.00 | 0.00 | 0.00 | 78 | 1019.2 |
| 20260906114327 | 55 | 317 | 11.0 | 0.0 | 0.00 | 0.00 | 0.00 | 81 | 1019.1 |
| 20260906113335 | 53 | 290 | 7.0 | 0.0 | 0.00 | 0.00 | 0.00 | 81 | 1018.7 |
| 20260906112337 | 53 | 279 | 8.0 | 0.0 | 0.00 | 0.00 | 0.00 | 80 | 1018.5 |
| 20260906111341 | 53 | 292 | 7.0 | 0.0 | 0.00 | 0.00 | 0.00 | 79 | 1018.2 |
| 20260906110344 | 54 | 288 | 7.0 | 0.0 | 0.00 | 0.00 | 0.00 | 79 | 1018.0 |
| 20260906105328 | 54 | 274 | 10.0 | 0.0 | 0.00 | 0.00 | 0.00 | 78 | 1017.7 |
| 20260906104356 | 53 | 260 | 11.0 | 0.0 | 0.00 | 0.00 | 0.00 | 77 | 1017.7 |
| 20260906103342 | 54 | 257 | 12.0 | 0.0 | 0.00 | 0.00 | 0.00 | 76 | 1017.1 |
| 20260906102405 | 55 | 267 | 8.0 | 0.0 | 0.00 | 0.00 | 0.00 | 75 | 1016.8 |
| 20260906101326 | 55 | 295 | 8.0 | 0.0 | 0.00 | 0.00 | 0.00 | 76 | 1016.4 |
| 20260906100354 | 55 | 276 | 8.0 | 0.0 | 0.00 | 0.00 | 0.00 | 77 | 1016.5 |
| 20260906095401 | 54 | 292 | 8.0 | 0.0 | 0.00 | 0.00 | 0.00 | 78 | 1016.9 |
| 20260906094326 | 53 | 294 | 3.0 | 0.0 | 0.00 | 0.00 | 0.00 | 77 | 1016.2 |
| 20260906093333 | 52 | 319 | 1.0 | 0.0 | 0.00 | 0.00 | 0.00 | 76 | 1016.1 |
| 20260906092357 | 53 | 34 | 4.0 | 0.0 | 0.00 | 0.00 | 0.00 | 76 | 1016.0 |
| 20260906091343 | 54 | 284 | 7.0 | 0.0 | 0.00 | 0.00 | 0.00 | 76 | 1016.9 |
| 20260906090326 | 54 | 271 | 7.0 | 0.0 | 0.00 | 0.00 | 0.00 | 75 | 1017.1 |
| 20260906085349 | 54 | 275 | 6.0 | 0.0 | 0.00 | 0.00 | 0.00 | 75 | 1016.7 |
| 20260906084332 | 54 | 302 | 7.0 | 0.0 | 0.00 | 0.00 | 0.00 | 75 | 1016.5 |
| 20260906083326 | 53 | 196 | 7.0 | 0.0 | 0.00 | 0.00 | 0.00 | 73 | 1016.7 |
| 20260906082352 | 54 | 196 | 7.0 | 0.0 | 0.00 | 0.00 | 0.00 | 72 | 1016.8 |
| 20260906081354 | 55 | 271 | 4.0 | 0.0 | 0.00 | 0.00 | 0.00 | 69 | 1016.5 |
| 20260906080357 | 56 | 273 | 4.0 | 0.0 | 0.00 | 0.00 | 0.00 | 68 | 1016.6 |
| 20260906075339 | 57 | 321 | 4.0 | 0.0 | 0.00 | 0.00 | 0.00 | 67 | 1016.7 |
| 20260906074327 | 57 | 309 | 4.0 | 0.0 | 0.00 | 0.00 | 0.00 | 65 | 1016.8 |
| 20260906073330 | 60 | 271 | 2.0 | 0.0 | 0.00 | 0.00 | 0.00 | 61 | 1017.4 |
| 20260906072354 | 60 | 325 | 5.0 | 0.0 | 0.00 | 0.00 | 0.00 | 62 | 1017.5 |
| 20260906071336 | 60 | 310 | 4.0 | 0.0 | 0.00 | 0.00 | 0.00 | 62 | 1017.5 |
| 20260906070339 | 61 | 201 | 3.0 | 0.0 | 0.00 | 0.00 | 0.00 | 60 | 1017.4 |
| 20260906065326 | 61 | 245 | 8.0 | 0.0 | 0.00 | 0.00 | 0.00 | 60 | 1017.0 |
| 20260906064332 | 62 | 208 | 12.0 | 0.0 | 0.00 | 0.00 | 0.00 | 59 | 1017.4 |
| 20260906063335 | 62 | 7 | 14.0 | 0.0 | 0.00 | 0.00 | 0.00 | 59 | 1017.3 |
| 20260906062341 | 62 | 26 | 15.0 | 0.0 | 0.00 | 0.00 | 0.00 | 57 | 1017.3 |
| 20260906061327 | 63 | 349 | 15.0 | 0.0 | 0.00 | 0.00 | 0.00 | 57 | 1017.3 |
| 20260906060334 | 63 | 7 | 15.0 | 0.0 | 0.00 | 0.00 | 0.00 | 57 | 1017.5 |
| 20260906055341 | 63 | 26 | 17.0 | 0.0 | 0.00 | 0.00 | 0.00 | 56 | 1017.0 |
| 20260906054404 | 64 | 7 | 18.0 | 0.0 | 0.00 | 0.00 | 0.00 | 56 | 1016.8 |
| 20260906053329 | 64 | 356 | 15.0 | 0.0 | 0.00 | 0.00 | 0.00 | 56 | 1017.8 |
| 20260906052335 | 64 | 342 | 15.0 | 0.0 | 0.00 | 0.00 | 0.00 | 55 | 1017.7 |
| 20260906051359 | 64 | 3 | 12.0 | 0.0 | 0.00 | 0.00 | 0.00 | 56 | 1017.7 |
| 20260906050325 | 62 | 15 | 5.0 | 0.0 | 0.00 | 0.00 | 0.00 | 61 | 1017.3 |
| 20260906045330 | 60 | 354 | 5.0 | 0.0 | 0.00 | 0.00 | 0.00 | 66 | 1017.8 |
| 20260906044357 | 59 | 277 | 7.0 | 0.0 | 0.00 | 0.00 | 0.00 | 65 | 1017.4 |
| 20260906043339 | 60 | 281 | 5.0 | 0.0 | 0.00 | 0.00 | 0.00 | 64 | 1016.9 |
| 20260906042345 | 61 | 293 | 5.0 | 0.0 | 0.00 | 0.00 | 0.00 | 59 | 1016.9 |
| 20260906041328 | 62 | 280 | 1.0 | 0.0 | 0.00 | 0.00 | 0.00 | 57 | 1017.2 |
| 20260906040335 | 63 | 297 | 4.0 | 0.0 | 0.00 | 0.00 | 0.00 | 57 | 1017.2 |
| 20260906035358 | 63 | 300 | 2.0 | 0.0 | 0.00 | 0.00 | 0.00 | 56 | 1016.6 |
| 20260906034339 | 64 | 186 | 5.0 | 0.0 | 0.00 | 0.00 | 0.00 | 54 | 1016.6 |
| 20260906033322 | 65 | 117 | 2.0 | 0.0 | 0.00 | 0.00 | 0.00 | 53 | 1017.0 |
| 20260906032329 | 65 | 157 | 5.0 | 0.0 | 0.00 | 0.00 | 0.00 | 54 | 1016.8 |
| 20260906031336 | 63 | 170 | 3.0 | 0.0 | 0.00 | 0.00 | 0.00 | 56 | 1016.3 |
| 20260906030342 | 64 | 69 | 3.0 | 0.0 | 0.00 | 0.00 | 0.00 | 56 | 1016.7 |
| 20260906025405 | 65 | 181 | 4.0 | 0.0 | 0.00 | 0.00 | 0.00 | 55 | 1016.2 |
| 20260906024328 | 66 | 172 | 1.0 | 0.0 | 0.00 | 0.00 | 0.00 | 55 | 1016.4 |
| 20260906023335 | 67 | 172 | 3.0 | 0.0 | 0.00 | 0.00 | 0.00 | 55 | 1016.4 |
| 20260906022337 | 68 | 109 | 2.0 | 0.0 | 0.00 | 0.00 | 0.00 | 55 | 1015.8 |
| 20260906021340 | 68 | 98 | 2.0 | 0.0 | 0.00 | 0.00 | 0.00 | 56 | 1015.7 |
| 20260906020323 | 70 | 63 | 1.0 | 0.0 | 0.00 | 0.00 | 0.00 | 54 | 1016.4 |
| 20260906015337 | 72 | 314 | 2.0 | 0.0 | 0.00 | 0.00 | 0.00 | 52 | 1015.2 |
| 20260906014323 | 75 | 102 | 0.0 | 0.0 | 0.00 | 0.00 | 0.00 | 50 | 1015.5 |
| 20260906013329 | 75 | 102 | 2.0 | 0.0 | 0.00 | 0.00 | 0.00 | 47 | 1015.4 |
| 20260906012359 | 77 | 101 | 2.0 | 0.0 | 0.00 | 0.00 | 0.00 | 40 | 1015.3 |
| 20260906011326 | 79 | 39 | 0.0 | 0.0 | 0.00 | 0.00 | 0.00 | 38 | 1015.8 |
| 20260906010329 | 79 | 39 | 2.0 | 0.0 | 0.00 | 0.00 | 0.00 | 37 | 1015.9 |
| 20260906005332 | 80 | 42 | 2.0 | 0.0 | 0.00 | 0.00 | 0.00 | 36 | 1015.9 |
| 20260906004359 | 80 | 63 | 1.0 | 0.0 | 0.00 | 0.00 | 0.00 | 37 | 1015.9 |
| 20260906003401 | 79 | 108 | 2.0 | 0.0 | 0.00 | 0.00 | 0.00 | 36 | 1015.9 |
| 20260906002327 | 80 | 43 | 4.0 | 0.0 | 0.00 | 0.00 | 0.00 | 37 | 1015.9 |
| 20260906001330 | 81 | 203 | 2.0 | 0.0 | 0.00 | 0.00 | 0.00 | 36 | 1015.5 |
| 20260906000333 | 81 | 92 | 1.0 | 0.0 | 0.00 | 0.00 | 0.00 | 35 | 1015.6 |
| 20260905235337 | 81 | 199 | 1.0 | 0.0 | 0.00 | 0.00 | 0.00 | 36 | 1015.5 |
| 20260905234344 | 81 | 283 | 3.0 | 0.0 | 0.00 | 0.00 | 0.00 | 36 | 1015.5 |
| 20260905233327 | 80 | 330 | 5.0 | 0.0 | 0.00 | 0.00 | 0.00 | 36 | 1015.6 |
| 20260905232330 | 81 | 323 | 3.0 | 0.0 | 0.00 | 0.00 | 0.00 | 36 | 1015.3 |
| 20260905231357 | 80 | 304 | 2.0 | 0.0 | 0.00 | 0.00 | 0.00 | 36 | 1015.7 |
| 20260905230344 | 80 | 321 | 3.0 | 0.0 | 0.00 | 0.00 | 0.00 | 37 | 1015.8 |
| 20260905225347 | 79 | 3 | 2.0 | 0.0 | 0.00 | 0.00 | 0.00 | 36 | 1016.2 |
| 20260905224330 | 79 | 28 | 2.0 | 0.0 | 0.00 | 0.00 | 0.00 | 37 | 1016.3 |
| 20260905223334 | 79 | 51 | 3.0 | 0.0 | 0.00 | 0.00 | 0.00 | 38 | 1016.4 |
| 20260905222336 | 78 | 15 | 3.0 | 0.0 | 0.00 | 0.00 | 0.00 | 39 | 1015.9 |
| 20260905221327 | 78 | 215 | 6.0 | 0.0 | 0.00 | 0.00 | 0.00 | 38 | 1016.0 |
| 20260905220349 | 78 | 266 | 4.0 | 0.0 | 0.00 | 0.00 | 0.00 | 39 | 1016.2 |
| 20260905215331 | 77 | 318 | 5.0 | 0.0 | 0.00 | 0.00 | 0.00 | 40 | 1016.5 |
| 20260905214335 | 77 | 325 | 3.0 | 0.0 | 0.00 | 0.00 | 0.00 | 40 | 1016.6 |
| 20260905213343 | 76 | 279 | 4.0 | 0.0 | 0.00 | 0.00 | 0.00 | 40 | 1016.7 |
| 20260905212326 | 76 | 314 | 3.0 | 0.0 | 0.00 | 0.00 | 0.00 | 41 | 1016.9 |
| 20260905211329 | 75 | 243 | 3.0 | 0.0 | 0.00 | 0.00 | 0.00 | 41 | 1017.3 |
| 20260905210332 | 75 | 295 | 4.0 | 0.0 | 0.00 | 0.00 | 0.00 | 42 | 1017.4 |
| 20260905205322 | 75 | 309 | 3.0 | 0.0 | 0.00 | 0.00 | 0.00 | 42 | 1017.6 |
| 20260905204350 | 74 | 44 | 5.0 | 0.0 | 0.00 | 0.00 | 0.00 | 42 | 1017.6 |
| 20260905203333 | 74 | 288 | 2.0 | 0.0 | 0.00 | 0.00 | 0.00 | 43 | 1017.8 |
| 20260905202336 | 73 | 284 | 4.0 | 0.0 | 0.00 | 0.00 | 0.00 | 45 | 1018.3 |
| 20260905201339 | 73 | 317 | 4.0 | 0.0 | 0.00 | 0.00 | 0.00 | 44 | 1018.4 |
| 20260905200326 | 73 | 21 | 2.0 | 0.0 | 0.00 | 0.00 | 0.00 | 45 | 1018.6 |
| 20260905195329 | 72 | 63 | 4.0 | 0.0 | 0.00 | 0.00 | 0.00 | 44 | 1018.6 |
| 20260905194333 | 72 | 336 | 3.0 | 0.0 | 0.00 | 0.00 | 0.00 | 47 | 1018.7 |
| 20260905193356 | 70 | 296 | 3.0 | 0.0 | 0.00 | 0.00 | 0.00 | 47 | 1018.3 |